YYYY,MM,DD,hh,mm,WD,WSPD,GST,WVHT,DPD,BARO,ATMP,WTMP,DEWP,PTDY
2006,9,1,0,0,219,1.7,2,0.15,4,1022.6,14.8,13.6,12.2,
2006,9,1,0,30,231,1.9,2.5,99,99,1022.5,14.6,13.5,11.6,
2006,9,1,1,0,231,2,2.2,0,0,1022.3,15.1,13.6,11,
2006,9,1,1,30,240,2.2,2.4,99,99,1022.2,14.8,13,11.1,
2006,9,1,2,0,238,1.8,2.2,0,0,1022.1,15.2,12.9,10.4,
2006,9,1,2,30,269,1.9,2.2,99,99,1021.9,14.8,12.6,10.6,
2006,9,1,3,0,275,1.1,1.3,0,0,1021.9,16,12.7,8.6,
2006,9,1,3,30,238,2,2.2,99,99,1022,14.9,12.8,9.4,
2006,9,1,4,0,257,2.2,2.6,0.16,7.69,1022.1,15,12.8,9.6,
2006,9,1,4,30,264,1.9,2.3,99,99,1022.3,15.2,12.7,8.6,
2006,9,1,5,0,262,2,2.3,0.18,4.76,1022.3,14.1,12.7,10,
2006,9,1,5,30,281,1.6,1.9,99,99,1022.2,13.8,12.5,10.4,
2006,9,1,6,0,273,2,2.4,0,0,1022.1,13.2,12.2,10.9,
2006,9,1,6,30,280,1.1,1.2,99,99,1022.2,12.8,12.1,10.9,
2006,9,1,7,0,270,1.4,1.6,0,0,1022.2,12.8,12.1,10.7,
2006,9,1,7,30,230,1.3,1.8,99,99,1022.3,12.6,11.9,11.2
2006,9,1,8,0,253,1.4,1.8,0,0,1022.3,12.5,12.8,11.5
2006,9,1,8,30,250,1.4,1.6,99,99,1022.3,12.5,12.5,11.5
2006,9,1,9,0,258,0.6,0.8,0,0,1022.3,12.4,12.4,11.4
2006,9,1,9,30,309,0.8,1,99,99,1022.1,12.3,12.2,11.4
2006,9,1,10,0,308,0.4,0.5,0,0,1022,12,12.3,11.1
2006,9,1,10,30,260,0.6,1,99,99,1022,12.2,12.2,11.2
2006,9,1,11,0,300,0.5,0.6,0,0,1021.9,12.1,12.1,11.1
2006,9,1,11,30,327,0.4,0.9,99,99,1021.8,11.9,12.3,11
2006,9,1,12,0,330,0.7,1,0,0,1021.6,12,12.2,11
2006,9,1,12,30,14,0.8,1.2,99,99,1021.5,12.6,12.2,11
2006,9,1,13,0,304,0.7,1.2,0.22,7.69,1021.3,12.4,12.2,10.7
2006,9,1,13,30,351,2.1,3.2,99,99,1021.3,12.9,12.6,10.4
2006,9,1,14,0,23,2.4,2.7,0.19,7.69,1021.3,13.2,12.8,10.5
2006,9,1,14,30,36,2.3,2.8,99,99,1021.1,13,12.8,10.4
2006,9,1,15,0,54,1.8,2.1,0.25,7.14,1021.2,12.7,12.7,10.6
2006,9,1,15,30,45,0.9,1,99,99,1021.1,13.1,12.7,11.2
2006,9,1,16,0,135,0.3,0.6,0.29,5.88,1020.9,13.9,12.8,11.5
2006,9,1,17,0,203,1,1.3,0.18,5.26,1020.6,13.4,13.1,11.5
2006,9,1,18,0,146,1.4,1.6,0,0,1020.2,14,13.3,11.6
2006,9,1,18,30,125,0.8,1.5,99,99,1019.8,14.4,13.9,11.4
2006,9,1,19,0,33,0.5,1.2,0.17,5.26,1019.5,15.4,13.3,11.5
2006,9,1,19,30,42,1.1,1.7,99,99,1019.2,14.7,13.7,11.5
2006,9,1,20,0,21,1.9,2.5,0.23,5.88,1018.9,14.9,13.3,11.3
2006,9,1,20,30,16,2.1,2.9,99,99,1018.5,14.7,13.5,11.3
2006,9,1,21,0,360,5.3,6,0.24,3.03,1017.8,15.2,13.1,10.9
2006,9,1,21,30,349,4.8,5.5,99,99,1017.6,15.7,12.9,10.8
2006,9,1,22,0,345,5.4,6,0.33,2.74,1017,15.9,13.2,10.8
2006,9,1,22,30,338,5.8,6.5,99,99,1016.5,16.3,13.1,10.7
2006,9,1,23,0,345,6.2,7,0.33,2.86,1016,16.7,12.9,10.5
2006,9,1,23,30,344,5.6,6.7,99,99,1015.6,16.8,12.9,10.5
2006,9,2,0,0,341,5.3,6.4,0.29,2.47,1015.4,17,12.8,10.6
2006,9,2,0,30,341,4.5,5.1,99,99,1015.1,17,12.8,10.5
2006,9,2,1,0,347,4.3,5.1,0.21,2.35,1014.7,16.8,12.8,10.8
2006,9,2,1,30,341,2.8,3.5,99,99,1014.4,16.6,12.8,11.1
2006,9,2,2,0,306,0.4,0.7,0,0,1014.4,17.3,12.9,10.9
2006,9,2,2,30,235,1.1,1.4,99,99,1014.1,16.9,12.9,10.8
2006,9,2,3,0,334,0.8,1.2,0,0,1014,17,12.7,10.5
2006,9,2,3,30,299,0.2,0.6,99,99,1014,16.1,12.7,10.5
2006,9,2,4,0,156,0.4,0.6,0.16,6.67,1014.1,15.6,12.7,10.3
2006,9,2,4,30,337,0.5,0.7,99,99,1014.2,15.6,12.7,10.6
2006,9,2,5,0,16,2,2.8,0,0,1014.2,15.2,12.7,11.5
2006,9,2,5,30,334,2.3,2.5,99,99,1014.2,15.1,12.7,11.3
2006,9,2,6,0,331,3,3.1,0,0,1014.2,14.9,12.7,10.7
2006,9,2,6,30,346,2.7,3,99,99,1014,15,12.8,10.2
2006,9,2,7,0,179,0.7,1.4,0,0,1014.1,14,12.7,999
2006,9,2,7,30,166,0.3,1.2,99,99,1014,14.4,12.6,10.6
2006,9,2,8,0,273,0.5,0.9,0,0,1014.1,14.3,12.6,10.6
2006,9,2,8,30,95,0.2,0.9,99,99,1014.1,14.1,12.3,10.7
2006,9,2,9,0,180,0.1,0.5,0.21,7.14,1014.2,13.5,12.3,10.9
2006,9,2,9,30,202,0.1,0.4,99,99,1014.1,13,12.5,11
2006,9,2,10,0,93,0.3,0.8,0,0,1014,13.2,12.3,10.8
2006,9,2,10,30,87,0.9,1.2,99,99,1014,13.4,12.3,11.2
2006,9,2,11,0,28,0.7,1.1,0,0,1013.9,13.6,12.3,10.8
2006,9,2,11,30,41,1.4,1.6,99,99,1013.9,13.6,12.2,10.5
2006,9,2,12,0,42,1.3,1.6,0.16,7.69,1013.9,13.4,12.5,10.1
2006,9,2,12,30,68,1.1,1.2,99,99,1013.8,13.4,12.4,10.4
2006,9,2,13,0,128,0.8,1.1,0.27,7.69,1013.8,12.9,12.2,10.8
2006,9,2,13,30,144,0.8,1.1,99,99,1013.7,13.2,12.3,10.6
2006,9,2,14,0,239,0.4,0.7,0.25,8.33,1013.8,14.1,12.1,999
2006,9,2,14,30,51,2.3,2.8,99,99,1013.7,13.9,12,10.1
2006,9,2,15,0,1,3.2,3.8,0.44,8.33,1013.7,14.6,12.6,10.4
2006,9,2,15,30,16,3.4,4.3,99,99,1013.9,14.4,13.1,10.3
2006,9,2,16,0,360,3.1,3.6,0.43,7.14,1013.9,14.9,13.3,10.4
2006,9,2,16,30,356,3.8,4.6,99,99,1013.7,14.7,13.2,10.5
2006,9,2,17,0,347,3.5,4.1,0.3,6.67,1013.7,15,13.2,10.1
2006,9,2,17,30,3,3.7,4.3,99,99,1013.7,15.2,13.3,10.2
2006,9,2,18,0,12,2.8,3.3,0.26,7.14,1013.6,15.2,13.3,10.4
2006,9,2,18,30,359,2.3,2.9,99,99,1013.5,15.5,13.3,10.3
2006,9,2,19,0,83,1.3,1.9,0.2,5.88,1013.3,15.2,13.4,10.8
2006,9,2,19,30,124,0.9,1.2,99,99,1013,15.8,13.6,11.3
2006,9,2,20,0,115,0.2,0.4,0.2,5.56,1012.7,16.5,13.5,10.8
2006,9,2,20,30,18,0.6,0.9,99,99,1012.6,17.2,14,11
2006,9,2,21,0,19,0.8,0.9,0.17,5.26,1012.4,17.3,13.8,9.8
2006,9,2,22,0,269,0.4,0.7,0.2,8.33,1012.1,19.2,13.6,10.2
2006,9,2,22,30,227,1.7,1.9,99,99,1011.6,17.6,14.3,10.7
2006,9,2,23,0,219,2.3,2.6,0.16,7.69,1011.3,18.1,13.5,11.5
2006,9,2,23,30,213,2,2.3,99,99,1010.9,18.2,14.3,9.8
2006,9,3,0,0,213,3.1,3.5,0,0,1010.7,16.7,14.2,999
2006,9,3,0,30,226,2.5,2.9,99,99,1010.5,16.2,14.1,11.9
2006,9,3,1,0,227,2.7,3.1,0,0,1010.2,16.8,13.6,11.1
2006,9,3,1,30,287,2.6,2.8,99,99,1010,15.5,13.6,999
2006,9,3,2,0,263,1.8,2.3,0.19,7.69,1009.9,15.5,13.4,11.8
2006,9,3,2,30,284,2.9,3.5,99,99,1009.6,15.9,13.4,11
2006,9,3,3,0,282,2.8,3.4,0.2,7.14,1009.6,15.1,12.9,11.2
2006,9,3,3,30,305,2.8,3.1,99,99,1009.6,15.9,12.6,999
2006,9,3,4,0,288,2.8,3,0.21,8.33,1009.8,16.7,12.6,999
2006,9,3,4,30,296,3,3.5,99,99,1009.9,16.3,12.9,999
2006,9,3,5,0,263,3.8,4.5,0,0,1010.1,16,12.8,10.1
2006,9,3,5,30,256,3.6,4.1,99,99,1010.1,14.5,12.7,999
2006,9,3,6,0,256,3,3.6,0.23,6.67,1010.1,14.2,12.7,999
2006,9,3,6,30,266,2.9,3.6,99,99,1010.2,13.8,12.6,11.3
2006,9,3,7,0,271,3.6,4.1,0.17,7.69,1010.3,13.8,12.5,11.2
2006,9,3,7,30,283,2.2,2.7,99,99,1010.5,13.6,12.6,11.3
2006,9,3,8,0,283,1.6,2.1,0.21,6.25,1010.7,13.4,12.5,11.4
2006,9,3,8,30,235,1.5,1.9,99,99,1010.8,13.3,12.6,11.5
2006,9,3,9,0,252,2,2.4,0.24,3.57,1010.9,13.4,12.8,11.5
2006,9,3,9,30,274,2.2,2.6,99,99,1011,13.8,12.8,11.2
2006,9,3,10,0,274,2.4,2.8,0.24,3.57,1011.2,13.9,12.6,11.2
2006,9,3,10,30,264,1.8,2.4,99,99,1011.2,13.4,12.3,11.4
2006,9,3,11,0,261,1.3,1.7,0.24,6.67,1011.4,13.1,12.3,11.3
2006,9,3,12,0,253,0.8,1.2,0.19,6.67,1011.7,12.8,12.4,11.3
2006,9,3,12,30,271,0.9,1.2,99,99,1011.6,12.5,12.4,11.4
2006,9,3,13,0,290,0.5,1.2,0.26,8.33,1011.6,12.3,12.2,11.3
2006,9,3,13,30,281,0.5,0.7,99,99,1011.8,12.3,12.4,11.3
2006,9,3,14,0,268,1.6,1.8,0.26,6.67,1012,12.4,12.2,11.4
2006,9,3,14,30,298,1.4,1.7,99,99,1012.2,12.4,12.4,11.5
2006,9,3,15,0,282,1,1.2,0.23,6.67,1012.2,12.8,12.4,11.9
2006,9,3,15,30,276,1.5,1.7,99,99,1012.4,12.9,12.4,12
2006,9,3,16,0,253,1.6,1.9,0.35,8.33,1012.4,13,12.3,11.9
2006,9,3,16,30,263,1.3,1.6,99,99,1012.4,13.2,12.2,12.1
2006,9,3,17,0,285,1.7,2,0.44,8.33,1012.4,13.4,12.8,12.2
2006,9,3,17,30,295,0.6,1,99,99,1012.3,13.5,13.3,12
2006,9,3,18,0,234,1.4,1.6,0.44,7.14,1012.2,14,13.4,12.2
2006,9,3,18,30,233,2,2.4,99,99,1012.2,13.9,13.6,12.4
2006,9,3,19,0,235,2.5,3,0.27,4.17,1012.1,13.5,13.6,12.3
2006,9,3,19,30,246,2.4,2.7,99,99,1011.7,13.7,13.6,12.3
2006,9,3,20,0,239,3.1,3.5,0.22,4.76,1011.6,13.7,13.6,12.2
2006,9,3,20,30,246,3.2,3.7,99,99,1011.3,13.6,13,12.2
2006,9,3,21,0,246,3.3,3.6,0.19,4.76,1011.2,13.5,13.2,12.3
2006,9,3,21,30,244,3.5,3.8,99,99,1010.9,13.7,13.1,12
2006,9,3,22,0,246,3.6,3.9,0.16,3.33,1010.7,13.9,13.4,12
2006,9,3,22,30,248,4.5,5.1,99,99,1010.4,13.8,13,12
2006,9,3,23,0,245,4,4.6,0.16,4.55,1010.2,13.9,12.8,11.7
2006,9,3,23,30,245,4.5,5.1,99,99,1010.1,13.6,12.7,12
2006,9,4,0,0,245,4.8,5.5,0.22,7.69,1009.9,13.7,12.5,11.9
2006,9,4,0,30,239,5.9,6.7,99,99,1009.8,14,12.6,11.8
2006,9,4,1,0,243,5.9,6.5,0.37,2.74,1009.6,14,12.3,11.5
2006,9,4,2,0,239,6.7,7.6,0.61,3.33,1009.3,13.5,12.3,11.6
2006,9,4,2,30,231,6.6,8.3,99,99,1009.5,13.3,12.5,11.7
2006,9,4,3,0,238,7.2,8.2,0.5,3.23,1009.5,13.2,12.4,11.6
2006,9,4,3,30,248,8.1,9.7,99,99,1009.5,13,12.5,11.6
2006,9,4,4,0,246,8.8,10.5,0.73,3.45,1009.7,13,12.5,11.3
2006,9,4,4,30,250,7.7,8.9,99,99,1010.1,12.8,12.5,11.2
2006,9,4,5,0,248,8.3,10.5,0.75,4,1010,12.4,12.5,11.1
2006,9,4,5,30,247,8.9,10.5,99,99,1010.1,12,12.4,11
2006,9,4,6,0,245,9.3,10.9,0.88,4.17,1010.2,11.9,12.3,10.9
2006,9,4,6,30,249,10,11.7,99,99,1010.2,11.8,12.3,10.8
2006,9,4,7,0,253,9.9,11.7,0.98,4,1010.4,12,12.3,10.8
2006,9,4,7,30,251,10.5,12.3,99,99,1010.5,11.9,12.4,10.8
2006,9,4,8,0,249,9.6,11.5,0.99,4.35,1010.9,11.9,12.4,10.8
2006,9,4,8,30,246,9.7,11.4,99,99,1011,11.8,12.3,10.8
2006,9,4,9,0,245,10.4,12,1.03,5,1011.1,11.7,12.2,10.8
2006,9,4,9,30,246,10,11.8,99,99,1011.2,11.7,12,10.9
2006,9,4,10,0,250,9.9,11.6,1.08,4.76,1011.4,12,12,10.8
2006,9,4,10,30,246,9.9,11.8,99,99,1011.6,11.8,12,10.7
2006,9,4,11,0,247,9.5,11.5,1.08,5.56,1012,11.5,12.2,10.7
2006,9,4,11,30,250,9.6,11.5,99,99,1012.3,11.5,12.1,10.8
2006,9,4,12,0,253,9.7,11.6,1.18,5.26,1012.5,11.4,11.9,10.7
2006,9,4,12,30,254,8.9,11.4,99,99,1012.7,11.5,12.1,10.7
2006,9,4,13,0,250,7.9,9.5,1.01,5.88,1013.2,11.6,12,10.8
2006,9,4,13,30,242,8.2,9.5,99,99,1013.3,11.5,12.1,10.8
2006,9,4,14,0,248,9.1,11,0.93,5.88,1013.6,11.4,12,10.8
2006,9,4,14,30,249,8.2,9.5,99,99,1014.1,11.5,12.1,10.9
2006,9,4,15,0,250,7.5,8.9,0.8,6.25,1014.6,11.4,12,10.9
2006,9,4,15,30,256,8.2,10,99,99,1014.5,11.2,12,10.8
2006,9,4,16,0,255,8.1,9.5,0.93,6.25,1014.8,11.5,12.1,11
2006,9,4,16,30,252,7.9,9.1,99,99,1014.8,11.7,12,11.1
2006,9,4,17,0,255,7.3,9,1.14,5.88,1015,11.7,12,11.1
2006,9,4,17,30,256,8,9.5,99,99,1015.2,11.8,12.3,11.1
2006,9,4,18,0,252,7.9,9.6,1.23,4.76,1015.4,11.7,12.5,11.1
2006,9,4,18,30,248,7.7,9.1,99,99,1015.5,11.8,12.5,11.2
2006,9,4,19,0,251,7.2,8.2,1.04,5,1015.7,12,12.4,11.1
2006,9,4,19,30,256,7.6,9.1,99,99,1015.5,12.5,12.3,11.2
2006,9,4,20,0,256,8.6,9.8,0.81,4,1015.5,12.9,12.2,11.2
2006,9,4,20,30,252,8.3,9.8,99,99,1015.6,12.7,12.2,11.2
2006,9,4,21,0,252,9.5,10.8,0.62,3.57,1015.5,12.5,12.1,11.1
2006,9,4,21,30,251,9,10.8,99,99,1015.6,12.6,12.1,11.2
2006,9,4,22,0,250,8.7,10.2,0.66,3.33,1015.5,13,12.2,11.2
2006,9,4,22,30,251,8.9,10.6,99,99,1015.5,13.2,12.4,11.2
2006,9,4,23,0,242,9.8,11.7,0.54,3.23,1015.4,12.5,12.3,11.2
2006,9,4,23,30,248,9,10.4,99,99,1015.3,12.8,12.3,11.3
2006,9,5,0,0,246,9.6,11,0.58,3.23,1015.1,12.7,12.2,11.3
2006,9,5,0,30,247,8.1,9.3,99,99,1015.3,13.2,12.3,11.3
2006,9,5,1,0,247,8.2,9.8,0.59,4,1015.3,13,12.2,11.3
2006,9,5,1,30,252,6,7,99,99,1015.5,14,12.2,10.9
2006,9,5,2,0,255,7.8,8.9,0.66,4.55,1015.5,13.6,12.2,10.9
2006,9,5,2,30,249,8.2,9.4,99,99,1015.4,13.7,12.1,10.7
2006,9,5,3,0,250,8.8,10.3,0.95,4.76,1015.7,13.4,12,10.7
2006,9,5,3,30,266,10.9,12.6,99,99,1015.9,14,12.1,10.4
2006,9,5,4,0,263,9.8,11.2,0.97,4.35,1016.6,13.8,12,10.6
2006,9,5,4,30,261,8.8,10.3,99,99,1017.1,13.6,12,11
2006,9,5,5,0,266,11.2,13,0.92,4.17,1017.1,13.2,12,11.6
2006,9,5,5,30,266,10.9,13.3,99,99,1017.4,13.2,11.9,11.7
2006,9,5,6,0,269,11.9,15.8,0.89,4.35,1017.6,13.1,11.9,11.8
2006,9,5,6,30,271,12.7,15.3,99,99,1017.7,13,11.8,12.1
2006,9,5,7,0,272,11.8,15.8,1.14,4.35,1018.2,13,11.7,12.3
2006,9,5,7,30,276,11.4,13.2,99,99,1018.5,12.9,11.7,12.2
2006,9,5,8,0,278,10.4,12.1,1.07,4.76,1018.9,12.8,11.8,12
2006,9,5,8,30,278,9.7,11.7,99,99,1019.2,13.1,11.8,11.8
2006,9,5,9,0,276,6.9,8.1,0.92,4.55,1019.6,13,11.8,11.8
2006,9,5,9,30,277,6.6,7.8,99,99,1019.9,13.4,11.8,11.9
2006,9,5,10,0,283,5.9,7.2,0.67,4.35,1020.1,13.2,11.8,11.8
2006,9,5,11,0,286,5.4,6,0.47,4.35,1020.5,13.1,11.7,11.6
2006,9,5,11,30,305,5.6,6.9,99,99,1020.9,13.3,11.6,11.6
2006,9,5,12,0,330,3.8,4.9,0.43,4.55,1021.3,13.1,11.6,11.4
2006,9,5,13,0,71,1.7,2,0.3,5,1021.9,11.7,11.6,10.9
2006,9,5,13,30,108,1,1.4,99,99,1022.2,11.6,11.6,10.9
2006,9,5,14,0,223,0.9,1.4,0.29,4.76,1022.5,11.8,11.6,11.1
2006,9,5,14,30,248,3.3,4.1,99,99,1022.8,11.9,11.6,11.3
2006,9,5,15,0,255,3.7,4.9,0.34,4.76,1023.2,11.6,11.7,11.1
2006,9,5,15,30,248,5.3,5.9,99,99,1023.2,11,11.8,10.6
2006,9,5,16,0,253,4.6,5.5,0.45,5.26,1023.3,10.8,11.9,10.6
2006,9,5,16,30,262,3.4,4.1,99,99,1023.6,10.7,11.8,10.5
2006,9,5,17,0,256,3.6,4.1,0.51,4.55,1023.8,10.7,11.7,10.5
2006,9,5,17,30,257,3.5,4.1,99,99,1023.8,10.8,11.7,10.6
2006,9,5,18,0,257,3.7,4.5,0.49,4.17,1023.8,10.8,11.9,10.7
2006,9,5,18,30,250,3.1,3.9,99,99,1023.8,11,12.4,10.8
2006,9,5,19,0,248,3.2,3.7,0.53,4,1023.6,11.1,12.5,11
2006,9,5,19,30,226,2.6,3.1,99,99,1023.4,11.3,12.4,11.2
2006,9,5,20,0,235,2.5,2.9,0.46,3.85,1023.2,11.6,12.4,11.4
2006,9,5,20,30,242,2.6,3,99,99,1022.9,11.8,12.5,11.6
2006,9,5,21,0,253,3.3,3.8,0.4,3.57,1022.5,11.9,12.3,11.6
2006,9,5,21,30,250,2.9,3.1,99,99,1022.3,12,12.1,11.6
2006,9,5,22,0,251,3.4,3.8,0.25,4.76,1022.1,12.2,12.4,11.6
2006,9,5,22,30,256,3.4,4,99,99,1021.8,12.6,12.3,11.7
2006,9,5,23,0,244,4,4.7,0.21,4.55,1021.6,12.7,12.6,11.6
2006,9,5,23,30,245,5.2,6.1,99,99,1021.3,12.1,12.4,11.3
2006,9,6,0,0,241,5.2,6,0.18,2.25,1021.2,12.1,12.4,11.3
2006,9,6,0,30,242,5.7,6.7,99,99,1021,12.4,12.1,11.3
2006,9,6,1,0,235,6.6,7.5,0.33,2.74,1020.7,12.5,11.9,11.3
2006,9,6,1,30,232,7.4,8.8,99,99,1020.4,12.7,11.8,11.3
2006,9,6,2,0,245,7,8,0.32,2.6,1020.3,12.9,12.1,11.2
2006,9,6,2,30,245,8.5,9.8,99,99,1019.8,13.1,12.1,11.5
2006,9,6,3,0,254,8.5,9.7,0.4,3.23,1019.8,14.1,12.1,11.5
2006,9,6,3,30,258,8.5,10.1,99,99,1019.9,14.3,12.2,11.5
2006,9,6,4,0,248,8.2,9.9,0.54,3.7,1020.2,14.3,12.2,11.6
2006,9,6,4,30,260,6.7,7.6,99,99,1020.4,14,12.1,11.4
2006,9,6,5,0,274,6.8,8.2,0.53,3.7,1020.4,14.6,11.9,11.3
2006,9,6,5,30,274,8.8,10.2,99,99,1020.3,15,11.9,11
2006,9,6,6,0,277,7.5,8.6,0.63,4,1020.4,14.4,11.9,10.9
2006,9,6,6,30,282,7.7,8.9,99,99,1020.3,15.6,11.8,10.6
2006,9,6,7,0,265,5,5.9,0.49,3.85,1020.5,14.4,11.8,10.8
2006,9,6,7,30,257,4.9,5.5,99,99,1020.4,13.8,11.8,10.7
2006,9,6,8,0,281,3.5,4.8,0.36,3.33,1020.8,12.9,11.8,10.8
2006,9,6,8,30,262,3.7,4.2,99,99,1020.7,12.7,11.7,10.7
2006,9,6,9,0,260,4.4,5.2,0.34,3.03,1020.7,12,11.7,10.9
2006,9,6,9,30,264,4.3,5,99,99,1020.7,11.9,11.7,10.8
2006,9,6,10,0,269,3.3,3.9,0.34,3.23,1020.9,11.6,11.6,10.7
2006,9,6,10,30,257,4.4,5.1,99,99,1020.8,11.6,11.6,10.7
2006,9,6,11,0,267,5,5.6,0.37,3.57,1020.9,11.5,11.6,10.8
2006,9,6,11,30,259,5.8,6.5,99,99,1021.1,11.1,11.7,10.5
2006,9,6,12,0,261,5.5,6.4,0.42,3.57,1021.2,10.8,11.5,10.3
2006,9,6,12,30,267,5.2,5.9,99,99,1021.3,10.8,11.4,10.4
2006,9,6,13,0,263,4,5.2,0.36,4.17,1021.3,10.8,11.6,10.5
2006,9,6,13,30,251,4.7,5.7,99,99,1021.4,10.7,11.4,10.4
2006,9,6,14,0,255,4.9,6,0.32,4.17,1021.7,10.5,11.3,10.2
2006,9,6,14,30,259,4.5,5.5,99,99,1021.9,10.4,11.5,10.1
2006,9,6,15,0,260,3.7,4.4,0.26,4.35,1022.2,10.3,11.6,10.1
2006,9,6,15,30,259,3.7,4.3,99,99,1022.3,10.3,11.4,10.1
2006,9,6,16,0,254,3.8,4.8,0.26,5,1022.4,10.2,11.5,10
2006,9,6,16,30,249,3.1,3.8,99,99,1022.6,10.3,11.4,10.1
2006,9,6,17,0,252,2.9,3.3,0.35,4.55,1022.5,10.3,11.4,10.1
2006,9,6,17,30,242,3.1,3.6,99,99,1022.5,10.3,11.5,10.2
2006,9,6,18,0,243,3.4,4,0.35,4,1022.5,10.3,11.5,10.2
2006,9,6,18,30,240,2.6,3.2,99,99,1022.4,10.4,11.3,10.4
2006,9,6,19,0,237,3.1,3.6,0.43,3.85,1022.1,10.5,11.4,10.4
2006,9,6,19,30,231,2.7,3.1,99,99,1021.9,10.6,11.9,10.5
2006,9,6,20,0,233,2.9,3.6,0.51,7.14,1021.6,11.1,12.1,11
2006,9,6,20,30,225,3.5,4.1,99,99,1021.5,11.3,12.3,11.2
2006,9,6,21,0,233,4.3,5.2,0.43,6.67,1021.2,11.2,12.2,11.1
2006,9,6,21,30,249,6.3,7.3,99,99,1020.9,10.9,12,10.7
2006,9,6,22,0,252,6.7,7.6,0.24,4,1020.8,11.2,12,11
2006,9,6,22,30,248,6.5,7.4,99,99,1020.5,11.4,11.9,11.2
2006,9,6,23,0,241,6,6.9,99,99,1020.1,11.6,11.8,11.4
2006,9,6,23,30,236,5.8,7.2,99,99,1019.7,12,11.8,11.5
2006,9,7,0,0,239,6.5,7.5,99,99,1019.4,12.5,11.7,11.6
2006,9,7,0,30,229,5.9,6.6,99,99,1019,12.7,11.7,11.4
2006,9,7,1,0,240,8.2,9.4,0.29,2.6,1018.5,12.7,11.5,11.4
2006,9,7,1,30,244,7.7,8.8,99,99,1018.4,12.4,11.2,11.1
2006,9,7,2,0,241,7.7,8.8,0.51,3.13,1018.4,12.8,11.3,10.8
2006,9,7,2,30,241,8.5,10,99,99,1018.2,12.4,11.5,10.7
2006,9,7,3,0,245,9.1,10.5,0.65,3.57,1018,12.1,11.3,10.6
2006,9,7,3,30,244,10,11.9,99,99,1018,11.7,11.6,10.6
2006,9,7,4,0,242,9.9,11.6,0.91,4.17,1018.3,11.5,11.3,10.6
2006,9,7,4,30,246,9.2,11,99,99,1018.5,11.3,11.3,10.7
2006,9,7,5,0,243,9.1,10.6,0.92,4.55,1018.6,11.5,11.3,10.7
2006,9,7,5,30,244,8.9,10.3,99,99,1018.5,11.2,11.2,10.5
2006,9,7,6,0,244,8.9,10,1.02,5,1018.3,11.2,11.3,10.5
2006,9,7,6,30,248,7.6,8.6,99,99,1018.4,11.4,11.4,10.5
2006,9,7,7,0,255,7.5,8.5,0.82,4.76,1018.4,11.1,11.5,10.3
2006,9,7,7,30,255,7.7,9.3,99,99,1018.3,11.2,11.5,10.2
2006,9,7,8,0,252,7.2,8.6,0.81,4,1018.3,11.4,11.4,10.2
2006,9,7,8,30,253,6.5,7.8,99,99,1018.2,11.6,11.1,10.2
2006,9,7,9,0,257,6.8,8.6,0.76,4,1018.2,11.7,11.3,10.3
2006,9,7,9,30,248,7.2,8,99,99,1018.2,11.5,11.2,10.3
2006,9,7,10,0,247,7.4,8.3,0.61,3.7,1018,11.4,11.2,10.3
2006,9,7,10,30,248,7.6,9,99,99,1018,11.3,11.1,10.3
2006,9,7,11,0,257,7.3,8.5,0.45,3.45,1018,11.2,11.1,10.3
2006,9,7,11,30,256,5.5,6.4,99,99,1018.3,11.2,11.1,10.2
2006,9,7,12,0,271,4.1,4.7,0.41,3.23,1018.4,11,11,10.2
2006,9,7,12,30,259,4.7,5.6,99,99,1018.3,11.1,11.1,10.1
2006,9,7,13,0,251,4,4.7,0.34,3.57,1018.4,11,11.1,10.1
2006,9,7,13,30,252,3.9,4.5,99,99,1018.3,10.9,11.2,10.1
2006,9,7,14,0,259,3.8,4.7,0.25,4,1018.3,10.9,11.2,10.2
2006,9,7,14,30,259,3.8,4.6,99,99,1018.4,11,11.2,10.4
2006,9,7,15,0,262,3.9,4.8,0.26,3.85,1018.6,11.1,11.3,10.6
2006,9,7,15,30,272,3.3,4.1,99,99,1018.6,11.2,11.3,10.6
2006,9,7,16,0,286,2.3,2.8,0.2,4.55,1018.6,11.3,11.2,10.6
2006,9,7,16,30,336,1.8,2.4,99,99,1018.5,11.3,11.3,10.7
2006,9,7,17,0,60,2.3,2.7,0.23,5.88,1018.7,10.2,11.4,9.6
2006,9,7,17,30,144,0.4,1.1,99,99,1018.7,10.4,11.4,10.1
2006,9,7,18,0,108,0.9,1.5,99,99,1018.4,10.4,11.5,10
2006,9,7,18,30,178,0.1,0.6,99,99,1018.2,10.8,11.7,10.5
2006,9,7,19,0,319,0.6,1,99,99,1017.8,10.7,11.5,10.3
2006,9,7,20,0,258,2.5,3,99,99,1017.1,10.2,11.3,10
2006,9,7,20,30,247,2,2.4,99,99,1016.7,10.1,11.5,9.9
2006,9,7,21,0,227,1.9,2.4,99,99,1016.3,10.1,11.5,10
2006,9,7,21,30,224,1.9,2.3,99,99,1015.9,10.3,12,10.2
2006,9,7,22,0,212,2,2.3,0.21,5.56,1015.4,10.5,12,10.3
2006,9,7,22,30,237,2.5,2.8,99,99,1014.9,11.3,11.9,11.1
2006,9,7,23,0,244,2.3,2.7,0.2,5,1014.5,11.7,11.3,11.4
2006,9,7,23,30,251,3.9,4.6,99,99,1013.9,12,11.5,11.4
2006,9,8,0,0,240,4,4.6,99,99,1013.6,12.1,11.7,11.4
2006,9,8,0,30,242,4.7,5.6,99,99,1013.2,12,11.9,11.1
2006,9,8,1,0,245,4.7,5.4,99,99,1012.8,12,11.8,10.9
2006,9,8,1,30,244,5.4,6.3,99,99,1012.4,12.1,11.8,10.8
2006,9,8,2,0,247,5.9,7,99,99,1012,12.2,11.7,10.7
2006,9,8,2,30,244,6.7,7.6,99,99,1011.5,12,11.7,10.6
2006,9,8,3,0,245,8.1,9.8,99,99,1011.1,12,11.7,10.5
2006,9,8,3,30,236,8.9,9.9,99,99,1011.1,12,11.4,10.4
2006,9,8,4,0,238,8.7,10.5,99,99,1011.1,11.9,11.7,10.1
2006,9,8,4,30,239,8.3,9.7,99,99,1011.1,11.8,11.4,10
2006,9,8,5,0,243,8.7,10.3,99,99,1011,11.5,11.3,10
2006,9,8,5,30,240,9,10.6,99,99,1010.9,11.5,11.1,10
2006,9,8,6,0,238,9.2,10.9,99,99,1010.7,11.3,11.1,9.9
2006,9,8,6,30,240,9.7,11.4,99,99,1010.7,11.1,11.4,9.8
2006,9,8,7,0,242,9.9,11.5,99,99,1010.5,10.3,11.4,9.7
2006,9,8,7,30,241,10.3,12.4,99,99,1010.3,10.1,11.3,9.7
2006,9,8,8,0,246,9.9,12.4,99,99,1010.2,10.2,11.3,9.7
2006,9,8,8,30,248,10.7,13.1,99,99,1010,10.3,11.2,9.6
2006,9,8,9,0,251,10,12.1,1.07,4.35,1010.1,10.5,11,9.9
2006,9,8,9,30,250,9.7,11.5,99,99,1010.2,11,10.9,10.3
2006,9,8,10,0,248,11.2,12.9,0.84,3.85,1010,11,10.8,10.2
2006,9,8,10,30,249,10.7,12.3,99,99,1010,11.1,10.9,10.4
2006,9,8,11,0,253,8.8,9.9,99,99,1010.1,11.3,10.9,10.6
2006,9,8,11,30,248,7.8,9.6,99,99,1010.2,11.4,10.8,10.7
2006,9,8,12,0,258,8.4,9.9,0.57,3.23,1010,11.5,10.7,10.8
2006,9,8,12,30,254,6.7,7.7,99,99,1010,11.6,10.7,10.7
2006,9,8,13,0,230,5.4,6.2,0.47,3.03,1010.1,11.1,10.7,10.3
2006,9,8,13,30,229,6.3,7.5,99,99,1010,11.1,10.6,10.4
2006,9,8,14,0,228,5.4,6.2,99,99,1010.3,11.1,10.6,10.4
2006,9,8,14,30,215,5.4,6.6,99,99,1010.5,11,10.6,10.4
2006,9,8,15,0,209,5.8,6.9,99,99,1010.4,11.1,10.8,10.5
2006,9,8,15,30,212,6.3,7.6,99,99,1010.4,11.3,11.1,10.6
2006,9,8,16,0,210,5.6,6.5,99,99,1010.6,11.3,11.1,10.6
2006,9,8,16,30,209,6.1,7.1,99,99,1010.5,11.4,11,10.7
2006,9,8,17,0,205,6.4,7.5,0.31,4.76,1010.5,11.5,11.2,10.7
2006,9,8,17,30,205,5.8,6.8,99,99,1010.5,11.6,11.2,10.7
2006,9,8,18,0,201,5.8,7,0.31,3.23,1010.6,11.8,11.1,10.7
2006,9,8,18,30,183,5.5,6.2,99,99,1010.5,11.8,11.1,10.7
2006,9,8,19,0,193,4.8,5.6,0.39,4.35,1010.4,11.8,11.2,10.7
2006,9,8,19,30,165,4.6,5.1,99,99,1010.3,11.6,11.1,10.6
2006,9,8,20,0,145,4.5,5.2,0.46,4,1010.1,11.4,11.3,10.7
2006,9,8,20,30,148,5.1,5.9,99,99,1009.9,11.5,11.3,10.9
2006,9,8,21,0,133,5.7,6.7,0.4,3.13,1009.7,11.6,11.4,11
2006,9,8,21,30,131,5.4,6.3,99,99,1009.5,11.6,11.5,11.1
2006,9,8,22,0,135,4.7,5.4,0.28,5.88,1009.3,11.7,11.7,11.2
2006,9,8,22,30,166,4,4.4,99,99,1009.1,11.8,11.7,11.3
2006,9,8,23,0,168,5.1,5.6,0.17,3.33,1008.7,12.1,11.5,11.4
2006,9,8,23,30,192,5.3,6.2,99,99,1008.5,12.9,11.5,11.2
2006,9,9,0,0,212,6.9,8.6,0.19,8.33,1008.1,13,11.6,11.2
2006,9,9,0,30,229,9.1,10.4,99,99,1007.7,12.8,11.5,11.3
2006,9,9,1,0,242,7.9,9.1,0.35,2.47,1007.6,13.6,11.7,11.2
2006,9,9,1,30,256,8.7,9.9,99,99,1007.5,15,11.5,12.1
2006,9,9,2,0,234,7.4,8.6,0.51,2.94,1007.7,13.6,11.4,11.8
2006,9,9,2,30,233,8.6,9.7,99,99,1007.7,12.7,11.4,11.4
2006,9,9,3,0,248,8.7,9.6,0.5,3.57,1007.7,12.9,11.3,11.5
2006,9,9,3,30,252,7.6,8.7,99,99,1008.4,12.7,11.1,11.3
2006,9,9,4,0,259,6.6,99,99,99,1009.1,13.2,11.1,11.6
2006,9,9,4,30,274,3.8,4.6,99,99,1009.2,12.8,11.1,11.4
2006,9,9,5,0,293,2.5,3.4,0.37,4.35,1009.5,13.2,11.1,11.5
2006,9,9,5,30,252,4.1,5.7,99,99,1009.7,12.9,11.1,11.4
2006,9,9,6,0,239,4.2,5,0.3,4.17,1009.8,12.2,10.9,11.2
2006,9,9,6,30,241,3.4,4.1,99,99,1009.6,12.2,11.1,11.3
2006,9,9,7,0,234,6.4,7.3,0.32,3.57,1009.9,12.5,11.1,11.6
2006,9,9,7,30,248,7.3,8.4,99,99,1009.7,12.6,11.1,11.7
2006,9,9,8,0,261,7.4,8.9,0.4,4.55,1009.9,12.4,11,11.8
2006,9,9,8,30,262,5.1,5.8,99,99,1010.2,12.2,10.9,11.8
2006,9,9,9,0,249,2.4,4.1,0.48,3.85,1010.4,12.2,10.9,11.8
2006,9,9,9,30,251,4.3,4.9,99,99,1010.5,12.3,11,12
2006,9,9,10,0,235,2.4,3.5,0.36,3.23,1010.7,11.9,11.1,11.6
2006,9,9,10,30,257,1.7,2.1,99,99,1010.8,12.1,11.1,11.8
2006,9,9,11,0,142,1.9,2.3,99,99,1011.1,12,11.1,11.7
2006,9,9,11,30,200,1.6,2,99,99,1011.4,12.4,11.1,11.9
2006,9,9,12,0,215,3,3.5,0.17,3.7,1011.5,12.2,11.1,11.9
2006,9,9,12,30,231,3.2,3.7,99,99,1011.5,12,11,11.7
2006,9,9,13,0,227,1.6,2.2,0.22,7.69,1011.7,12.1,11,11.7
2006,9,9,13,30,278,4.1,5.5,99,99,1011.7,12.2,11,11.8
2006,9,9,14,0,281,5.9,7.4,0.17,4.76,1011.7,12,11,11.2
2006,9,9,14,30,279,8.1,9.8,99,99,1011.7,12.4,10.9,11.1
2006,9,9,15,0,285,7.7,9.2,0.34,2.74,1012,12.3,10.9,10.9
2006,9,9,15,30,276,6.3,7.2,99,99,1012.3,12.2,11,10.8
2006,9,9,16,0,278,5.6,6.3,0.43,3.45,1012.6,12.3,11,10.6
2006,9,9,16,30,277,5.1,5.9,99,99,1012.9,12.5,11.1,10.6
2006,9,9,17,0,254,5.3,6.3,0.33,3.85,1013.3,12.6,11.1,10.7
2006,9,9,17,30,236,3,3.9,99,99,1013.9,12.4,11.1,10.8
2006,9,9,18,0,280,8.6,10.3,0.3,4.35,1014,13.1,10.9,10.7
2006,9,9,18,30,270,7.1,8.2,99,99,1014.3,12.7,10.6,10.6
2006,9,9,19,0,271,7.5,8.8,0.58,4.35,1014.6,12.7,10.5,10.6
2006,9,9,19,30,277,7.8,9.2,99,99,1014.7,12.7,10.6,10.4
2006,9,9,20,0,264,7.3,8.6,0.76,4.35,1015,13,10.7,10.5
2006,9,9,20,30,267,7.6,8.8,99,99,1015.2,13.2,10.7,10.2
2006,9,9,21,0,269,6.7,7.6,0.78,4.35,1015.5,13.2,10.7,10.1
2006,9,9,21,30,257,7,8,99,99,1015.6,13.4,10.7,10.1
2006,9,9,22,0,253,6.8,8.3,0.76,3.57,1015.9,13.4,10.9,9.9
2006,9,9,22,30,256,7.4,8.7,99,99,1016.3,13.5,10.9,9.8
2006,9,9,23,0,269,7.3,8.2,0.72,3.57,1016.3,13.5,10.8,9.7
2006,9,9,23,30,269,8,9.4,99,99,1016.4,13.4,10.8,9.3
2006,9,10,0,0,260,8,9.6,0.53,3.13,1016.6,13.9,10.7,8.7
2006,9,10,0,30,259,8.4,11.3,99,99,1016.5,14.7,10.9,7.8
2006,9,10,1,0,266,6.1,7.1,0.52,2.94,1016.8,13.4,11,999
2006,9,10,1,30,270,6.1,7,99,99,1016.9,13.4,10.9,8.5
2006,9,10,2,0,268,6.7,8.1,0.47,2.86,1016.9,13.4,10.9,8.6
2006,9,10,2,30,268,6.6,7.7,99,99,1017.1,13.3,10.9,8.2
2006,9,10,3,0,257,4.6,5.5,0.39,2.74,1017.2,12.8,10.9,8.4
2006,9,10,3,30,234,3.3,4.2,99,99,1017.5,12.6,10.9,8.8